This demonstration page uses our WeatherBlox Daily Observations layout. Learn more.

Left ArrowRight Arrow

39.51506, -84.39828

Hourly Observations for June 2, 2022

Temp ( °F °C ) Dew Point ( °F °C ) Humidity (%) Winds ( mph kmh ) Pressure ( in mb ) Visibility ( mi km ) Precip ( " mm )
12:15 am 00:15 Mostly Cloudy 68 20 N/A N/A Calm 29.90 1013 10 16 0.00 0.00
12:35 am 00:35 Mostly Cloudy with Light Rain 68 20 N/A N/A Calm 29.89 1012 10 16 0.02 0.51
12:55 am 00:55 Partly Cloudy 66 19 N/A N/A Calm 29.90 1012 7 11 0.04 1.02
1:15 am 01:15 Hazy 66 19 N/A N/A Calm 29.90 1012 5 8 0.01 0.25
1:35 am 01:35 Mostly Cloudy with Haze 66 19 N/A N/A W 3 6 29.90 1012 5 8 0.01 0.25
1:55 am 01:55 Cloudy with Haze 66 19 N/A N/A Calm 29.89 1012 5 8 0.01 0.25
2:15 am 02:15 Cloudy 66 19 N/A N/A Calm 29.89 1012 7 11 0.00 0.00
2:35 am 02:35 Mostly Cloudy 66 19 N/A N/A Calm 29.89 1012 7 11 0.00 0.00
2:55 am 02:55 Mostly Cloudy 66 19 N/A N/A Calm 29.88 1012 10 16 0.00 0.00
3:15 am 03:15 Cloudy 66 19 N/A N/A Calm 29.88 1012 10 16 0.00 0.00
3:35 am 03:35 Partly Cloudy 66 19 N/A N/A Calm 29.88 1012 10 16 0.00 0.00
3:55 am 03:55 Hazy 66 19 N/A N/A Calm 29.87 1011 5 8 0.00 0.00
4:15 am 04:15 Mostly Cloudy with Haze 66 19 N/A N/A SW 3 6 29.88 1012 7 11 0.00 0.00
4:35 am 04:35 Hazy 66 19 N/A N/A Calm 29.87 1011 5 8 0.00 0.00
4:55 am 04:55 Hazy 66 19 N/A N/A Calm 29.87 1011 7 11 0.00 0.00
5:15 am 05:15 Mostly Cloudy with Haze 66 19 N/A N/A Calm 29.87 1011 5 8 0.00 0.00
5:35 am 05:35 Cloudy with Haze 66 19 N/A N/A Calm 29.87 1011 5 8 0.00 0.00
5:55 am 05:55 Cloudy 66 19 N/A N/A Calm 29.86 1011 10 16 0.00 0.00
6:15 am 06:15 Partly Cloudy 66 19 N/A N/A N 3 6 29.85 1011 10 16 0.00 0.00
6:35 am 06:35 Mostly Cloudy 66 19 N/A N/A NNW 5 7 29.85 1011 10 16 0.00 0.00
6:55 am 06:55 Mostly Cloudy 66 19 N/A N/A N 6 9 29.86 1011 10 16 0.00 0.00
7:15 am 07:15 Cloudy with Haze 68 20 N/A N/A N 3 6 29.85 1011 7 11 0.00 0.00
7:35 am 07:35 Cloudy with Light Rain 66 19 N/A N/A NW 3 6 29.87 1011 5 8 0.00 0.00
7:55 am 07:55 Cloudy with Mist and Fog 67 19.3 66 19 98 98 NNW 3 6 29.87 1011 7 11 0.00 0.00
8:15 am 08:15 Cloudy 67 19.2 65 18.2 94 94 N 5 7 29.87 1011 7 11 0.00 0.00
8:35 am 08:35 Cloudy with Light Rain 66 19.1 65 18.5 96 96 NW 3 6 29.88 1012 7 11 0.00 0.00
8:55 am 08:55 Cloudy 67 19.5 64 17.9 91 91 NNW 3 6 29.87 1011 10 16 0.00 0.00
9:15 am 09:15 Cloudy 67 19.5 65 18.1 92 92 WNW 3 6 29.88 1012 10 16 0.00 0.00
9:35 am 09:35 Cloudy 67 19.5 64 17.9 91 91 Calm 29.88 1012 10 16 0.00 0.00
9:55 am 09:55 Cloudy 68 19.8 64 18 89 89 Calm 29.88 1012 10 16 0.00 0.00
10:15 am 10:15 Cloudy with Light Rain 67 19.4 65 18.3 93 93 N 9 15 29.89 1012 7 11 0.00 0.00
10:35 am 10:35 Cloudy with Rain 64 17.9 62 16.7 93 93 NW 9 15 29.89 1012 7 11 0.00 0.00
10:55 am 10:55 Cloudy with Rain 62 16.8 62 16.4 98 98 NNW 5 7 29.89 1012 3 5 0.00 0.00
11:15 am 11:15 Cloudy with Light Rain 63 17.2 62 16.7 97 97 Calm 29.89 1012 5 8 0.01 0.25
11:35 am 11:35 Cloudy 65 18.1 63 17.3 95 95 Calm 29.89 1012 10 16 0.01 0.25
11:55 am 11:55 Cloudy 68 19.8 62 16.8 83 83 N 6 9 29.89 1012 10 16 0.01 0.25
12:15 pm 12:15 Cloudy 70 21.1 60 15.7 71 71 N 7 11 29.89 1012 10 16 0.00 0.00
12:35 pm 12:35 Cloudy 70 21.1 58 14.2 65 65 NNW 12 19 29.89 1012 10 16 0.00 0.00
12:55 pm 12:55 Cloudy 70 20.9 59 15 69 69 NW 7 11 29.89 1012 10 16 0.00 0.00
1:15 pm 13:15 Cloudy 71 21.6 60 15.3 68 68 NW 8 13 29.89 1012 10 16 0.00 0.00
1:35 pm 13:35 Cloudy 70 21.2 59 14.8 67 67 NW 9 15 29.89 1012 10 16 0.00 0.00
1:55 pm 13:55 Cloudy 71 21.5 59 14.8 66 66 WNW 6 9 29.88 1012 10 16 0.00 0.00
2:15 pm 14:15 Cloudy 71 21.9 58 14.4 63 63 NW 6 9 29.87 1012 10 16 0.00 0.00
2:35 pm 14:35 Cloudy 73 22.6 58 14.2 59 59 WNW 8 13 29.88 1012 10 16 0.00 0.00
2:55 pm 14:55 Cloudy 72 22.4 55 13 55 55 NW 8 13 29.87 1011 10 16 0.00 0.00
3:15 pm 15:15 Mostly Cloudy 73 22.9 56 13.3 55 55 NW 9 15 29.87 1011 10 16 0.00 0.00
3:35 pm 15:35 Partly Cloudy 72 22.4 56 13.3 57 57 WNW 6 9 29.86 1011 10 16 0.00 0.00
3:55 pm 15:55 Partly Cloudy 73 22.9 56 13.4 55 55 W 7 11 29.86 1011 10 16 0.00 0.00
4:15 pm 16:15 Sunny 74 23.3 56 13.6 55 55 NW 8 13 29.85 1011 10 16 0.00 0.00
4:35 pm 16:35 Partly Cloudy 74 23.1 55 13 53 53 W 3 6 29.85 1011 10 16 0.00 0.00
4:55 pm 16:55 Partly Cloudy 74 23.5 56 13.2 53 53 W 6 9 29.85 1011 10 16 0.00 0.00
5:15 pm 17:15 Sunny 74 23.2 56 13.2 53 53 W 7 11 29.85 1011 10 16 0.00 0.00
5:35 pm 17:35 Sunny 74 23.2 57 13.7 55 55 W 6 9 29.84 1010 10 16 0.00 0.00
5:55 pm 17:55 Sunny 75 23.7 55 13 51 51 W 7 11 29.84 1010 10 16 0.00 0.00
6:15 pm 18:15 Sunny 74 23.4 56 13.4 54 54 W 5 7 29.84 1010 10 16 0.00 0.00
6:35 pm 18:35 Sunny 75 23.7 54 12.4 49 49 W 6 9 29.83 1010 10 16 0.00 0.00
6:55 pm 18:55 Sunny 74 23.3 56 13.5 54 54 W 5 7 29.84 1010 10 16 0.00 0.00
7:15 pm 19:15 Sunny 73 22.7 56 13.6 57 57 WSW 6 9 29.84 1010 10 16 0.00 0.00
7:35 pm 19:35 Partly Cloudy 71 21.9 57 13.7 60 60 WSW 6 9 29.85 1011 10 16 0.00 0.00
7:55 pm 19:55 Partly Cloudy 69 20.6 64 17.8 84 84 W 5 7 29.85 1011 10 16 0.00 0.00
8:15 pm 20:15 Partly Cloudy 69 20.4 62 16.6 79 79 W 5 7 29.85 1011 10 16 0.00 0.00
8:35 pm 20:35 Sunny 67 19.3 64 17.5 89 89 W 5 7 29.87 1011 10 16 0.00 0.00
8:55 pm 20:55 Sunny 65 18.3 63 17.3 94 94 W 5 7 29.87 1011 10 16 0.00 0.00
9:15 pm 21:15 Clear 64 17.8 62 16.9 95 95 WNW 3 6 29.88 1012 10 16 0.00 0.00
9:35 pm 21:35 Clear 64 17.9 62 16.8 93 93 Calm 29.88 1012 10 16 0.00 0.00
9:55 pm 21:55 Clear 63 17.3 62 16.8 97 97 Calm 29.88 1012 10 16 0.00 0.00
10:15 pm 22:15 Clear 63 17 61 16 94 94 NNE 3 6 29.88 1012 10 16 0.00 0.00
10:35 pm 22:35 Clear 62 16.5 61 16.3 99 99 N 3 6 29.89 1012 10 16 0.00 0.00
10:55 pm 22:55 Clear 61 16 61 16 100 100 Calm 29.90 1013 10 16 0.00 0.00
11:15 pm 23:15 Partly Cloudy 59 15 N/A N/A Calm 29.91 1013 10 16 0.00 0.00
11:35 pm 23:35 Mostly Cloudy 61 16 N/A N/A Calm 29.91 1013 10 16 0.00 0.00
11:55 pm 23:55 Cloudy 61 16 N/A N/A Calm 29.90 1013 10 16 0.00 0.00

Powered by AerisWeather